DW7590 Weather Reports


time (UTC)temp
C
wind
direction
speed
KPH
gust
KPH
rain 1hr
cm
rain 24hr
cm
rain mn
cm
humidity
%
barometer
mb
20260906201643 38 242 3.2 22.5 0.00 0.00 0.00 27 1012.3
20260906201143 38 131 3.2 22.5 0.00 0.00 0.00 28 1012.3
20260906200642 38 222 9.7 22.5 0.00 0.00 0.00 28 1012.4
20260906195643 38 184 1.6 19.3 0.00 0.00 0.00 30 1012.5
20260906194143 37 126 8.0 20.9 0.00 0.00 0.00 31 1012.8
20260906193642 37 163 4.8 19.3 0.00 0.00 0.00 31 1012.8
20260906193143 38 178 12.9 19.3 0.00 0.00 0.00 31 1012.9
20260906192143 37 187 1.6 20.9 0.00 0.00 0.00 33 1013.1
20260906191143 37 243 12.9 27.4 0.00 0.00 0.00 33 1013.1
20260906190142 37 129 27.4 32.2 0.00 0.00 0.00 33 1013.3
20260906185643 37 267 9.7 19.3 0.00 0.00 0.00 33 1013.3
20260906185143 37 249 9.7 20.9 0.00 0.00 0.00 33 1013.4
20260906184643 37 186 11.3 20.9 0.00 0.00 0.00 34 1013.5
20260906184143 37 95 1.6 14.5 0.00 0.00 0.00 34 1013.6
20260906183643 37 205 3.2 19.3 0.00 0.00 0.00 35 1013.5
20260906183143 37 255 11.3 19.3 0.00 0.00 0.00 34 1013.7
20260906182643 37 242 4.8 20.9 0.00 0.00 0.00 34 1013.7
20260906182143 37 324 11.3 20.9 0.00 0.00 0.00 34 1013.8
20260906181642 37 138 1.6 20.9 0.00 0.00 0.00 36 1014.0
20260906175643 37 113 4.8 19.3 0.00 0.00 0.00 35 1014.2
20260906175142 37 189 3.2 19.3 0.00 0.00 0.00 37 1014.5
20260906174642 37 157 8.0 19.3 0.00 0.00 0.00 35 1014.4
20260906174143 37 159 4.8 20.9 0.00 0.00 0.00 36 1014.7
20260906173642 37 181 12.9 20.9 0.00 0.00 0.00 37 1014.7
20260906173142 36 159 20.9 20.9 0.00 0.00 0.00 37 1014.8
20260906172643 36 178 4.8 20.9 0.00 0.00 0.00 38 1014.9
20260906172143 36 156 11.3 20.9 0.00 0.00 0.00 40 1014.9
20260906171642 35 175 9.7 19.3 0.00 0.00 0.00 39 1015.0
20260906170642 35 122 3.2 20.9 0.00 0.00 0.00 38 1015.1
20260906170143 36 105 12.9 20.9 0.00 0.00 0.00 39 1015.2
20260906165643 35 147 11.3 16.1 0.00 0.00 0.00 40 1015.3
20260906165143 35 156 1.6 6.4 0.00 0.00 0.00 40 1015.4
20260906164643 35 157 1.6 11.3 0.00 0.00 0.00 41 1015.5
20260906164143 35 157 3.2 14.5 0.00 0.00 0.00 41 1015.6
20260906163643 35 184 9.7 14.5 0.00 0.00 0.00 41 1015.6
20260906163143 35 128 3.2 12.9 0.00 0.00 0.00 41 1015.6
20260906162643 35 203 1.6 8.0 0.00 0.00 0.00 42 1015.6
20260906161143 35 224 1.6 12.9 0.00 0.00 0.00 42 1015.4
20260906160642 35 162 4.8 12.9 0.00 0.00 0.00 43 1015.4
20260906160142 35 186 4.8 8.0 0.00 0.00 0.00 45 1015.4
20260906155642 34 337 3.2 8.0 0.00 0.00 0.00 44 1015.5
20260906155142 33 296 3.2 8.0 0.00 0.00 0.00 45 1015.4
20260906154143 33 163 4.8 8.0 0.00 0.00 0.00 46 1015.4
20260906153643 33 203 1.6 12.9 0.00 0.00 0.00 46 1015.3
20260906153143 33 255 9.7 12.9 0.00 0.00 0.00 45 1015.3
20260906152643 33 199 4.8 11.3 0.00 0.00 0.00 49 1015.2
20260906152142 33 201 4.8 12.9 0.00 0.00 0.00 47 1015.2
20260906151143 33 179 4.8 8.0 0.00 0.00 0.00 49 1015.2
20260906150642 33 178 9.7 8.0 0.00 0.00 0.00 48 1015.2
20260906145642 32 161 1.6 6.4 0.00 0.00 0.00 49 1015.1
20260906145142 32 161 1.6 6.4 0.00 0.00 0.00 50 1015.1
20260906144643 31 180 1.6 6.4 0.00 0.00 0.00 53 1015.2
20260906144142 31 207 3.2 6.4 0.00 0.00 0.00 54 1015.2
20260906143643 31 207 4.8 6.4 0.00 0.00 0.00 53 1015.1
20260906143143 31 207 1.6 6.4 0.00 0.00 0.00 56 1015.1
20260906142142 30 207 4.8 11.3 0.00 0.00 0.00 56 1015.1
20260906141642 30 184 11.3 11.3 0.00 0.00 0.00 57 1015.1
20260906141143 30 133 1.6 6.4 0.00 0.00 0.00 58 1015.1
20260906140642 29 133 4.8 4.8 0.00 0.00 0.00 59 1014.9
20260906140142 29 133 1.6 4.8 0.00 0.00 0.00 61 1014.9
20260906135642 28 133 1.6 4.8 0.00 0.00 0.00 59 1014.9
20260906135142 28 133 3.2 1.6 0.00 0.00 0.00 59 1014.8
20260906134642 28 133 1.6 6.4 0.00 0.00 0.00 61 1014.8
20260906134142 27 133 1.6 6.4 0.00 0.00 0.00 61 1014.7
20260906133142 27 118 1.6 4.8 0.00 0.00 0.00 62 1014.7
20260906132642 27 118 1.6 1.6 0.00 0.00 0.00 63 1014.7
20260906132143 27 106 1.6 0.0 0.00 0.00 0.00 64 1014.6
20260906131642 27 106 1.6 0.0 0.00 0.00 0.00 65 1014.5
20260906131143 26 106 1.6 0.0 0.00 0.00 0.00 66 1014.4
20260906130642 26 106 1.6 0.0 0.00 0.00 0.00 66 1014.4
20260906130142 26 106 1.6 0.0 0.00 0.00 0.00 68 1014.3
20260906125642 26 106 1.6 0.0 0.00 0.00 0.00 68 1014.3
20260906125143 26 106 1.6 0.0 0.00 0.00 0.00 68 1014.3
20260906124643 25 106 1.6 0.0 0.00 0.00 0.00 68 1014.3
20260906124142 25 106 1.6 0.0 0.00 0.00 0.00 68 1014.3
20260906123642 25 106 1.6 0.0 0.00 0.00 0.00 68 1014.2
20260906123143 25 106 1.6 0.0 0.00 0.00 0.00 68 1014.2
20260906122642 25 106 1.6 0.0 0.00 0.00 0.00 68 1014.1
20260906122142 25 106 1.6 0.0 0.00 0.00 0.00 68 1014.1
20260906121642 25 106 1.6 0.0 0.00 0.00 0.00 68 1013.9
20260906121142 25 106 1.6 0.0 0.00 0.00 0.00 68 1013.9
20260906120642 25 106 1.6 0.0 0.00 0.00 0.00 68 1013.8
20260906120143 25 106 1.6 0.0 0.00 0.00 0.00 68 1013.9
20260906115642 25 106 1.6 0.0 0.00 0.00 0.00 68 1013.8
20260906115143 25 106 1.6 0.0 0.00 0.00 0.00 68 1013.7
20260906114142 25 106 1.6 0.0 0.00 0.00 0.00 68 1013.9
20260906113642 25 106 1.6 0.0 0.00 0.00 0.00 68 1013.7
20260906113142 25 106 1.6 0.0 0.00 0.00 0.00 68 1013.6
20260906112642 25 106 1.6 0.0 0.00 0.00 0.00 68 1013.6
20260906112142 25 106 1.6 0.0 0.00 0.00 0.00 67 1013.5
20260906111643 25 106 1.6 0.0 0.00 0.00 0.00 67 1013.4
20260906110142 25 106 1.6 0.0 0.00 0.00 0.00 67 1013.4
20260906105642 25 106 1.6 0.0 0.00 0.00 0.00 67 1013.4
20260906105143 25 106 1.6 0.0 0.00 0.00 0.00 67 1013.3
20260906104642 25 106 1.6 0.0 0.00 0.00 0.00 67 1013.3
20260906104142 25 106 1.6 0.0 0.00 0.00 0.00 67 1013.3
20260906103642 25 106 1.6 0.0 0.00 0.00 0.00 67 1013.3
20260906103143 25 106 1.6 0.0 0.00 0.00 0.00 67 1013.3
20260906102642 25 106 1.6 0.0 0.00 0.00 0.00 67 1013.3
20260906102142 25 106 1.6 0.0 0.00 0.00 0.00 67 1013.2
20260906101642 25 106 1.6 0.0 0.00 0.00 0.00 67 1013.1
20260906101143 25 106 1.6 0.0 0.00 0.00 0.00 66 1013.1
20260906100642 25 106 1.6 0.0 0.00 0.00 0.00 66 1013.2
20260906100143 25 106 1.6 0.0 0.00 0.00 0.00 66 1013.2
20260906095642 25 106 1.6 0.0 0.00 0.00 0.00 65 1013.2
20260906095142 25 106 1.6 0.0 0.00 0.00 0.00 65 1013.2
20260906094643 25 106 1.6 0.0 0.00 0.00 0.00 65 1013.2
20260906094143 25 106 1.6 0.0 0.00 0.00 0.00 65 1013.2
20260906093143 25 106 1.6 0.0 0.00 0.00 0.00 65 1013.1
20260906092642 25 106 1.6 0.0 0.00 0.00 0.00 64 1013.2
20260906092142 25 106 1.6 0.0 0.00 0.00 0.00 64 1013.2
20260906090643 26 106 1.6 0.0 0.00 0.00 0.00 64 1013.3
20260906090142 26 106 1.6 0.0 0.00 0.00 0.00 64 1013.4
20260906085642 26 106 1.6 0.0 0.00 0.00 0.00 64 1013.2
20260906085142 26 106 1.6 0.0 0.00 0.00 0.00 63 1013.2
20260906084142 26 106 1.6 0.0 0.00 0.00 0.00 63 1013.2
20260906083642 26 106 1.6 0.0 0.00 0.00 0.00 63 1013.2
20260906083143 26 106 1.6 0.0 0.00 0.00 0.00 63 1013.1
20260906082642 26 106 1.6 0.0 0.00 0.00 0.00 62 1013.1
20260906082142 26 106 1.6 0.0 0.00 0.00 0.00 62 1013.0
20260906081142 26 106 1.6 0.0 0.00 0.00 0.00 61 1013.0
20260906080642 26 106 1.6 0.0 0.00 0.00 0.00 61 1013.1
20260906080142 26 106 1.6 0.0 0.00 0.00 0.00 60 1013.0
20260906075642 26 106 1.6 0.0 0.00 0.00 0.00 60 1013.0
20260906075143 26 106 1.6 0.0 0.00 0.00 0.00 60 1013.0
20260906074642 26 106 1.6 0.0 0.00 0.00 0.00 60 1013.0
20260906074142 27 106 1.6 0.0 0.00 0.00 0.00 59 1013.1
20260906073642 27 106 1.6 0.0 0.00 0.00 0.00 60 1013.1
20260906073142 27 106 1.6 0.0 0.00 0.00 0.00 59 1013.1
20260906072642 27 106 1.6 0.0 0.00 0.00 0.00 58 1013.1
20260906072142 27 106 1.6 0.0 0.00 0.00 0.00 58 1013.1
20260906071642 27 106 1.6 0.0 0.00 0.00 0.00 58 1013.1
20260906070642 27 106 1.6 0.0 0.00 0.00 0.00 59 1013.1
20260906070142 27 106 1.6 0.0 0.00 0.00 0.00 59 1013.1
20260906065143 27 106 1.6 0.0 0.00 0.00 0.00 58 1013.1
20260906064642 27 106 1.6 0.0 0.00 0.00 0.00 58 1013.0
20260906064142 27 106 1.6 0.0 0.00 0.00 0.00 58 1013.0
20260906063642 27 106 1.6 0.0 0.00 0.00 0.00 58 1013.0
20260906063142 27 106 1.6 0.0 0.00 0.00 0.00 57 1013.1
20260906062642 27 106 1.6 0.0 0.00 0.00 0.00 57 1013.1
20260906062142 27 106 1.6 0.0 0.00 0.00 0.00 57 1013.2
20260906061642 27 106 1.6 0.0 0.00 0.00 0.00 56 1013.2
20260906060642 27 106 1.6 0.0 0.00 0.00 0.00 56 1013.2
20260906060142 27 106 1.6 0.0 0.00 0.00 0.00 56 1013.1
20260906055642 27 106 1.6 6.4 0.00 0.00 0.00 56 1013.1
20260906055142 27 106 1.6 6.4 0.00 0.00 0.00 56 1013.2
20260906054642 27 105 1.6 4.8 0.00 0.00 0.00 56 1013.2
20260906054142 27 105 1.6 8.0 0.00 0.00 0.00 56 1013.1
20260906053642 27 105 3.2 12.9 0.00 0.00 0.00 56 1013.1
20260906053142 27 105 9.7 12.9 0.00 0.00 0.00 56 1013.2
20260906052642 27 115 8.0 12.9 0.00 0.00 0.00 56 1013.1
20260906052142 27 116 3.2 12.9 0.00 0.00 0.00 56 1012.9
20260906051142 28 114 8.0 19.3 0.00 0.00 0.00 56 1012.9
20260906050642 28 133 19.3 19.3 0.00 0.00 0.00 55 1013.0
20260906050142 28 137 1.6 0.0 0.00 0.00 0.00 55 1012.7
20260906045142 28 137 1.6 0.0 0.00 0.00 0.00 54 1012.7
20260906044142 28 137 1.6 0.0 0.00 0.00 0.00 53 1012.9
20260906043643 28 137 1.6 0.0 0.00 0.00 0.00 53 1012.8
20260906043142 28 137 1.6 0.0 0.00 0.00 0.00 53 1012.8
20260906042642 29 137 1.6 0.0 0.00 0.00 0.00 52 1012.8
20260906042142 29 137 1.6 0.0 0.00 0.00 0.00 52 1012.7
20260906041642 29 137 1.6 0.0 0.00 0.00 0.00 52 1012.8
20260906041142 29 137 1.6 0.0 0.00 0.00 0.00 52 1012.7
20260906040642 30 137 1.6 0.0 0.00 0.00 0.00 51 1012.8
20260906040142 30 137 1.6 0.0 0.00 0.00 0.00 51 1012.8
20260906035642 30 137 1.6 0.0 0.00 0.00 0.00 51 1012.9
20260906035142 30 137 1.6 0.0 0.00 0.00 0.00 51 1012.9
20260906034642 30 137 1.6 0.0 0.00 0.00 0.00 50 1013.0
20260906034142 30 137 1.6 0.0 0.00 0.00 0.00 50 1013.0
20260906033142 30 137 1.6 0.0 0.00 0.00 0.00 49 1012.8
20260906032142 30 137 1.6 1.6 0.00 0.00 0.00 49 1012.7
20260906031642 31 137 1.6 4.8 0.00 0.00 0.00 49 1012.7
20260906030642 31 137 1.6 1.6 0.00 0.00 0.00 48 1012.6
20260906025642 31 137 1.6 0.0 0.00 0.00 0.00 47 1012.7
20260906025142 31 137 1.6 0.0 0.00 0.00 0.00 47 1012.6
20260906024642 31 137 1.6 0.0 0.00 0.00 0.00 47 1012.4
20260906024142 31 137 1.6 0.0 0.00 0.00 0.00 46 1012.4
20260906023642 31 137 1.6 1.6 0.00 0.00 0.00 46 1012.3
20260906023142 31 137 1.6 4.8 0.00 0.00 0.00 45 1012.2
20260906022642 32 137 1.6 4.8 0.00 0.00 0.00 45 1012.3
20260906022142 32 137 1.6 4.8 0.00 0.00 0.00 44 1012.1
20260906021642 32 137 1.6 1.6 0.00 0.00 0.00 44 1012.1
20260906021142 32 137 1.6 1.6 0.00 0.00 0.00 44 1012.0
20260906020142 32 137 1.6 4.8 0.00 0.00 0.00 43 1011.9
20260906015642 32 137 4.8 4.8 0.00 0.00 0.00 43 1011.8
20260906015142 32 137 1.6 1.6 0.00 0.00 0.00 43 1011.9
20260906014642 32 137 1.6 0.0 0.00 0.00 0.00 42 1011.6
20260906014142 32 137 1.6 0.0 0.00 0.00 0.00 42 1011.6
20260906013642 33 137 1.6 0.0 0.00 0.00 0.00 42 1011.5
20260906013142 33 137 1.6 0.0 0.00 0.00 0.00 41 1011.4
20260906012642 33 137 1.6 0.0 0.00 0.00 0.00 41 1011.4
20260906012142 33 137 1.6 0.0 0.00 0.00 0.00 40 1011.4
20260906011642 33 137 1.6 0.0 0.00 0.00 0.00 39 1011.4
20260906011142 34 137 1.6 0.0 0.00 0.00 0.00 39 1011.4
20260906010642 34 137 1.6 1.6 0.00 0.00 0.00 38 1011.3
20260906010142 34 137 1.6 4.8 0.00 0.00 0.00 38 1011.3
20260906005642 35 137 3.2 6.4 0.00 0.00 0.00 37 1011.4
20260906005142 35 137 3.2 6.4 0.00 0.00 0.00 37 1011.4
20260906004642 35 137 3.2 4.8 0.00 0.00 0.00 36 1011.1
20260906004142 35 136 3.2 4.8 0.00 0.00 0.00 36 1011.1
20260906003642 35 136 3.2 11.3 0.00 0.00 0.00 35 1011.0
20260906003142 36 136 1.6 14.5 0.00 0.00 0.00 35 1011.0
20260906002642 36 152 9.7 14.5 0.00 0.00 0.00 34 1011.0
20260906002142 36 157 4.8 14.5 0.00 0.00 0.00 34 1011.0
20260906001642 36 168 1.6 14.5 0.00 0.00 0.00 34 1011.0
20260906001142 36 141 8.0 8.0 0.00 0.00 0.00 33 1011.0
20260906000642 36 148 1.6 8.0 0.00 0.00 0.00 33 1010.9
20260906000142 36 148 8.0 8.0 0.00 0.00 0.00 33 1010.9
20260905235642 36 147 1.6 14.5 0.00 0.00 0.00 33 1011.0
20260905235142 36 168 3.2 14.5 0.00 0.00 0.00 33 1010.9
20260905234642 36 136 8.0 16.1 0.00 0.00 0.00 33 1010.9
20260905233642 37 207 17.7 16.1 0.00 0.00 0.00 32 1010.7
20260905233142 37 137 3.2 19.3 0.00 0.00 0.00 32 1010.7
20260905232142 37 189 8.0 12.9 0.00 0.00 0.00 32 1010.6
20260905231642 36 189 3.2 12.9 0.00 0.00 0.00 32 1010.7
20260905231142 36 182 8.0 12.9 0.00 0.00 0.00 33 1010.7
20260905230642 36 152 4.8 14.5 0.00 0.00 0.00 33 1010.7
20260905230142 36 144 8.0 14.5 0.00 0.00 0.00 33 1010.7
20260905225642 36 169 8.0 19.3 0.00 0.00 0.00 33 1010.6
20260905225142 36 143 14.5 27.4 0.00 0.00 0.00 33 1010.6
20260905224642 36 134 14.5 32.2 0.00 0.00 0.00 33 1010.7
20260905224142 37 142 27.4 32.2 0.00 0.00 0.00 32 1010.8
20260905223142 37 151 14.5 32.2 0.00 0.00 0.00 34 1010.6
20260905222142 37 140 19.3 22.5 0.00 0.00 0.00 33 1010.7
20260905221642 37 129 9.7 25.7 0.00 0.00 0.00 33 1010.7
20260905221142 37 138 14.5 25.7 0.00 0.00 0.00 33 1010.7
20260905220642 37 168 19.3 22.5 0.00 0.00 0.00 33 1010.8
20260905215642 37 161 12.9 20.9 0.00 0.00 0.00 34 1010.9
20260905214642 37 128 8.0 22.5 0.00 0.00 0.00 34 1011.0
20260905214142 37 135 9.7 22.5 0.00 0.00 0.00 33 1011.1
20260905213642 37 162 12.9 19.3 0.00 0.00 0.00 33 1011.1
20260905212642 37 236 12.9 27.4 0.00 0.00 0.00 34 1011.2
20260905210642 37 159 4.8 22.5 0.00 0.00 0.00 33 1011.6
20260905210142 37 149 14.5 22.5 0.00 0.00 0.00 32 1011.5
20260905205642 37 195 8.0 22.5 0.00 0.00 0.00 33 1011.6
20260905205142 37 251 11.3 22.5 0.00 0.00 0.00 33 1011.6
20260905204642 37 236 9.7 22.5 0.00 0.00 0.00 33 1011.6
20260905204142 37 193 9.7 20.9 0.00 0.00 0.00 34 1011.8
20260905203642 37 90 11.3 22.5 0.00 0.00 0.00 33 1011.9
20260905202642 37 139 14.5 22.5 0.00 0.00 0.00 34 1012.1